Regional Weather Roundup
Issued by NWS Northern Indiana

Home | Current Version | Previous Version | Graphics & Text | Print | Product List | Glossary On
Versions: 1 2 3 4 5 6 7 8 9 10 11 12 13 14 15 16 17 18 19 20 21 22 23 24 25 26 27 28 29 30 31 32 33 34 35 36 37 38 39 40 41 42 43 44 45 46 47 48 49 50
000
ASUS43 KIWX 232300
RWRIWX

KIWX WEATHER ROUNDUP
NATIONAL WEATHER SERVICE NORTHERN INDIANA
700 PM EDT MON MAY 23 2016

NOTE: "FAIR" INDICATES FEW OR NO CLOUDS BELOW 12,000 FEET WITH NO
SIGNIFICANT WEATHER AND/OR OBSTRUCTIONS TO VISIBILITY.

* THESE STATIONS ARE NOT UNDER NWS QUALITY CONTROL. THEY ALSO MAY NOT
  REPORT WEATHER SUCH AS PRECIPITATION OR FOG.

INZ001>027-240000-
NORTHERN INDIANA

CITY           SKY/WX    TMP DP  RH WIND       PRES   REMARKS
GARY*          MOSUNNY   79  52  38 E6        29.94F
SOUTH BEND     SUNNY     77  33  20 S9        29.97S
ELKHART*       SUNNY     77  45  31 S7        29.98S
GOSHEN         SUNNY     76  30  18 S8        29.97F
ANGOLA*        SUNNY     73  34  23 SE5       29.98F
FORT WAYNE     SUNNY     76  34  21 SE5       29.99F

$$
INZ028>050-240000-
CENTRAL INDIANA

CITY           SKY/WX    TMP DP  RH WIND       PRES   REMARKS
LAFAYETTE      SUNNY     77  38  24 SE7       29.95F
KOKOMO*        SUNNY     75  37  25 S6        29.97F
MUNCIE*        SUNNY     78  37  22 S6        29.98F
INDIANAPOLIS   SUNNY     76  38  25 SE6       29.98S

$$
MIZ043>046-050>051-056>058-064>065-071>073-077>080-240000-
SOUTHWEST LOWER MICHIGAN

CITY           SKY/WX    TMP DP  RH WIND       PRES   REMARKS
BATTLE CREEK   SUNNY     75  33  21 S8        29.97F
BENTON HARBOR  SUNNY     78  43  28 VRB3      29.95F
COLDWATER*     SUNNY     74  32  21 S3        29.98S
HILLSDALE*     SUNNY     74   8   7 SW5       29.99F
HOLLAND        SUNNY     75  42  30 W7        29.96F
GRAND RAPIDS   MOSUNNY   81  38  21 S9        29.95F
KALAMAZOO      SUNNY     76  37  24 S8        29.97F
STURGIS*       SUNNY     75  34  22 S7        29.97S
THREE RIVERS*  FAIR      77  33  20 S8        29.97S

$$
OHZ001>008-015>018-024>025-240000-
NORTHWEST OHIO

CITY           SKY/WX    TMP DP  RH WIND       PRES   REMARKS
DEFIANCE       SUNNY     77  37  23 S5        29.98F
FINDLAY        SUNNY     76  42  29 E3        29.98F
TOLEDO EXPRESS SUNNY     75  41  29 SE5       29.98S
TOLEDO METCALF SUNNY     74  45  35 E8        29.99F
LIMA           SUNNY     75  42  30 SW3       29.99F

$$
AND FOR LAKE MICHIGAN COASTAL AND OPEN LAKE BUOY OBSERVATIONS

STATION/POSITION TEMP    WIND        PRES    VSBY  WAVE
                 AIR SEA DIR/SP/G                  HT/PER
                 (F)     (DEG/KT/KT) (MB)    (MI)  (FT/S)
CALUMET HARBOR    66                 1013.5F
MICHIGAN CITY     65      20/  8/  9   N/A
BURNS HARBOR      67      40/  5/  7 1014.6S
SAINT JOSEPH      71      10/  4/  5 1015.6S
SOUTH LAKE BUOY   61 52  140/  4/  6 1014.1          0
4 MI NW BRIDGMAN  64 61   40/  6/  8   N/A           0
MICHIGAN CITY     63 59   50/  6/ 10   N/A           0

$$
&&



USA.gov is the U.S. government's official web portal to all federal, state and local government web resources and services.